TimePDT,TemperatureF,Dew PointF,Humidity,Sea Level PressureIn,VisibilityMPH,Wind Direction,Wind SpeedMPH,Gust SpeedMPH,PrecipitationIn,Events,Conditions,WindDirDegrees,DateUTC
12:56 AM,69.1,30.0,23,29.89,10.0,WNW,6.9,-,N/A,,Clear,290,2012-10-09 07:56:00
1:56 AM,68.0,34.0,28,29.90,10.0,WNW,8.1,-,N/A,,Clear,300,2012-10-09 08:56:00
2:56 AM,64.0,37.9,38,29.89,10.0,NW,4.6,-,N/A,,Clear,320,2012-10-09 09:56:00
3:56 AM,64.0,39.0,40,29.89,10.0,NW,10.4,-,N/A,,Clear,310,2012-10-09 10:56:00
4:56 AM,63.0,39.0,41,29.89,10.0,NW,3.5,-,N/A,,Clear,320,2012-10-09 11:56:00
5:56 AM,62.1,37.9,41,29.91,10.0,WNW,6.9,-,N/A,,Clear,290,2012-10-09 12:56:00
6:56 AM,60.1,39.0,46,29.93,10.0,NNW,4.6,-,N/A,,Clear,330,2012-10-09 13:56:00
7:56 AM,63.0,39.0,41,29.94,7.0,NW,3.5,-,N/A,,Partly Cloudy,310,2012-10-09 14:56:00
8:56 AM,66.0,39.9,38,29.95,7.0,NW,3.5,-,N/A,,Partly Cloudy,310,2012-10-09 15:56:00
9:56 AM,72.0,37.9,29,29.94,7.0,NW,6.9,-,N/A,,Partly Cloudy,320,2012-10-09 16:56:00
10:56 AM,75.9,37.0,24,29.94,7.0,Calm,Calm,-,N/A,,Partly Cloudy,0,2012-10-09 17:56:00
11:56 AM,79.0,37.0,22,29.91,7.0,SSE,6.9,-,N/A,,Partly Cloudy,150,2012-10-09 18:56:00
12:56 PM,82.0,34.0,18,29.88,7.0,East,5.8,-,N/A,,Partly Cloudy,80,2012-10-09 19:56:00
1:56 PM,84.0,34.0,17,29.85,7.0,SE,12.7,17.3,N/A,,Partly Cloudy,130,2012-10-09 20:56:00
2:56 PM,84.9,34.0,16,29.84,7.0,South,4.6,-,N/A,,Partly Cloudy,170,2012-10-09 21:56:00
3:56 PM,86.0,32.0,14,29.83,7.0,Variable,3.5,-,N/A,,Partly Cloudy,0,2012-10-09 22:56:00
4:56 PM,84.9,32.0,15,29.82,10.0,SW,16.1,-,N/A,,Clear,230,2012-10-09 23:56:00
5:56 PM,81.0,28.9,15,29.83,10.0,SW,17.3,-,N/A,,Clear,230,2012-10-10 00:56:00
6:56 PM,78.1,30.0,17,29.84,10.0,SW,17.3,-,N/A,,Clear,220,2012-10-10 01:56:00
7:56 PM,75.9,30.0,19,29.87,10.0,SSW,12.7,-,N/A,,Clear,210,2012-10-10 02:56:00
8:56 PM,77.0,28.0,17,29.88,10.0,SSE,6.9,-,N/A,,Clear,160,2012-10-10 03:56:00
9:56 PM,78.1,28.9,17,29.88,10.0,Calm,Calm,-,N/A,,Clear,0,2012-10-10 04:56:00
10:56 PM,73.9,25.0,16,29.88,10.0,West,4.6,-,N/A,,Clear,260,2012-10-10 05:56:00
11:56 PM,69.1,26.1,20,29.88,10.0,ENE,4.6,-,N/A,,Clear,70,2012-10-10 06:56:00